Location: Gleizolles
(44.4833°N, 6.7667°E)
Time: 21:00:59
(UTC+00:00)

Tiros 1 despin weight - Pass Details

Date: 29 June 2024
Orbit: 576 x 620 km, 48.2° (Epoch: 19 July)

Event Time Altitude Azimuth Distance (km) Brightness Sun altitude
Rises 14:08:54 0° 292° (WNW) 2,897 ? 52.4°
Reaches altitude 10° 14:11:14 10° 289° (WNW) 1,989 ? 52.0°
Maximum altitude 14:15:46 67° 208° (SSW) 673 ? 51.2°
Drops below altitude 10° 14:20:17 10° 126° (SE) 1,972 ? 50.5°
Sets 14:22:35 0° 124° (ESE) 2,870 ? 50.1°
